Погода в Адищеве

Россия / Костромская область     57°39′56″N   42°08′39″E
темп.,
°C
ветер,
м/с
пор.,
м/с
влажн.,
%
обл.,
%
осадки,
мм/ч
давл.,
гПа
погр.,
м
25 февраля, чт
чт2500:00−17ю41095100 0.4 1028439
03:00−16ю51096100 1.2 1025490
06:00−16ю51096100 1.8 1018515
09:00−16ю4996100 4.2 1015495
12:00−13ююв4693100 1.3 1012443
15:00−10юв2493100 1.5 1012350
18:00−13вюв229697 0.2 101265
21:00−15вюв229793 0.3 101339
26 февраля, пт
пт2600:00−16вюв239896 0.1 101349
03:00−16юв359798 0.1 1013131
06:00−15юв4796100 0.1 1010243
09:00−14юв4995100 0.8 1007267
12:00−11юв51195100 3.8 1003338
15:00−9юв5995100 7.8 999281
18:00−7юв3596100 5.8 996157
21:00−3з07100100 7.7 995298
27 февраля, сб
сб2700:000з2799100 1.4 993367
03:00−4ссв1599100 3.4 996239
06:00−12ссв4994100 0.7 997381
09:00−13ссв5992100 0.8 1001523
12:00−12ссв5890100 0.1 1004650
15:00−11ссв5889100 0.2 1006689
18:00−13с3992100 0.1 1009433
21:00−17с379683 0.1 1011158
28 февраля, вс
вс2800:00−19ссз35974 0.0 1012106
03:00−20ссз25972 0.0 101491
06:00−20ссз23975 0.0 101575
09:00−17с259411 0.0 1016218
12:00−12с259159 0.0 1016430
15:00−10ссз359079 0.1 1017530
18:00−11ссз2794100 0.1 1018268
21:00−15с239681 0.1 102023
1 марта, пн
пн100:00−16с129727 0.0 102120
03:00−17сз119956 0.0 102220
06:00−15з119886 0.1 102320
09:00−11ююз139793 0.1 102491
12:00−5юз259597 0.1 1023391
15:00−3зюз479097 0.1 1021670
18:00−4зюз41094100 0.1 1018630
21:00−2зюз41194100 0.2 1016546